Year,Month,Day,Hour,Minute,Value (Times are PST for temperature in C)
2015,03,28,00,00,8.60
2015,03,28,00,01,8.60
2015,03,28,00,02,8.50
2015,03,28,00,03,8.50
2015,03,28,00,04,8.40
2015,03,28,00,05,8.40
2015,03,28,00,06,8.40
2015,03,28,00,07,8.40
2015,03,28,00,08,8.50
2015,03,28,00,09,8.60
2015,03,28,00,10,8.60
2015,03,28,00,11,8.60
2015,03,28,00,12,8.60
2015,03,28,00,13,8.60
2015,03,28,00,14,8.60
2015,03,28,00,15,8.60
2015,03,28,00,16,8.70
2015,03,28,00,17,8.70
2015,03,28,00,18,8.70
2015,03,28,00,19,8.70
2015,03,28,00,20,8.70
2015,03,28,00,21,8.70
2015,03,28,00,22,8.70
2015,03,28,00,23,8.70
2015,03,28,00,24,8.70
2015,03,28,00,25,8.60
2015,03,28,00,26,8.60
2015,03,28,00,27,8.60
2015,03,28,00,28,8.60
2015,03,28,00,29,8.60
2015,03,28,00,30,8.60
2015,03,28,00,31,8.60
2015,03,28,00,32,8.60
2015,03,28,00,33,8.60
2015,03,28,00,34,8.60
2015,03,28,00,35,8.70
2015,03,28,00,36,8.70
2015,03,28,00,37,8.70
2015,03,28,00,38,8.70
2015,03,28,00,39,8.70
2015,03,28,00,40,8.70
2015,03,28,00,41,8.80
2015,03,28,00,42,8.80
2015,03,28,00,43,8.80
2015,03,28,00,44,8.80
2015,03,28,00,45,8.80
2015,03,28,00,46,8.80
2015,03,28,00,47,8.80
2015,03,28,00,48,8.70
2015,03,28,00,49,8.70
2015,03,28,00,50,8.60
2015,03,28,00,51,8.60
2015,03,28,00,52,8.60
2015,03,28,00,53,8.50
2015,03,28,00,54,8.50
2015,03,28,00,55,8.60
2015,03,28,00,56,8.70
2015,03,28,00,57,8.80
2015,03,28,00,58,8.80
2015,03,28,00,59,8.90
2015,03,28,01,00,8.90
2015,03,28,01,01,8.90
2015,03,28,01,02,9.00
2015,03,28,01,03,9.00
2015,03,28,01,04,9.00
2015,03,28,01,05,9.00
2015,03,28,01,06,9.00
2015,03,28,01,07,9.00
2015,03,28,01,08,9.00
2015,03,28,01,09,9.10
2015,03,28,01,10,9.10
2015,03,28,01,11,9.10
2015,03,28,01,12,9.10
2015,03,28,01,13,9.10
2015,03,28,01,14,9.10
2015,03,28,01,15,9.10
2015,03,28,01,16,9.10
2015,03,28,01,17,9.10
2015,03,28,01,18,9.10
2015,03,28,01,19,9.10
2015,03,28,01,20,9.10
2015,03,28,01,21,9.20
2015,03,28,01,22,9.10
2015,03,28,01,23,9.10
2015,03,28,01,24,9.10
2015,03,28,01,25,9.10
2015,03,28,01,26,9.10
2015,03,28,01,27,9.00
2015,03,28,01,28,9.00
2015,03,28,01,29,8.90
2015,03,28,01,30,8.90
2015,03,28,01,31,8.90
2015,03,28,01,32,8.80
2015,03,28,01,33,8.80
2015,03,28,01,34,8.80
2015,03,28,01,35,8.80
2015,03,28,01,36,8.80
2015,03,28,01,37,8.70
2015,03,28,01,38,8.70
2015,03,28,01,39,8.70
2015,03,28,01,40,8.70
2015,03,28,01,41,8.70
2015,03,28,01,42,8.70
2015,03,28,01,43,8.70
2015,03,28,01,44,8.70
2015,03,28,01,45,8.60
2015,03,28,01,46,8.60
2015,03,28,01,47,8.60
2015,03,28,01,48,8.60
2015,03,28,01,49,8.60
2015,03,28,01,50,8.60
2015,03,28,01,51,8.60
2015,03,28,01,52,8.60
2015,03,28,01,53,8.50
2015,03,28,01,54,8.50
2015,03,28,01,55,8.50
2015,03,28,01,56,8.40
2015,03,28,01,57,8.40
2015,03,28,01,58,8.40
2015,03,28,01,59,8.40
2015,03,28,02,00,8.40
2015,03,28,02,01,8.40
2015,03,28,02,02,8.40
2015,03,28,02,03,8.40
2015,03,28,02,04,8.40
2015,03,28,02,05,8.40
2015,03,28,02,06,8.40
2015,03,28,02,07,8.40
2015,03,28,02,08,8.30
2015,03,28,02,09,8.30
2015,03,28,02,10,8.30
2015,03,28,02,11,8.30
2015,03,28,02,12,8.30
2015,03,28,02,13,8.30
2015,03,28,02,14,8.30
2015,03,28,02,15,8.30
2015,03,28,02,16,8.30
2015,03,28,02,17,8.30
2015,03,28,02,18,8.30
2015,03,28,02,19,8.30
2015,03,28,02,20,8.30
2015,03,28,02,21,8.30
2015,03,28,02,22,8.30
2015,03,28,02,23,8.30
2015,03,28,02,24,8.30
2015,03,28,02,25,8.30
2015,03,28,02,26,8.30
2015,03,28,02,27,8.30
2015,03,28,02,28,8.30
2015,03,28,02,29,8.30
2015,03,28,02,30,8.30
2015,03,28,02,31,8.30
2015,03,28,02,32,8.30
2015,03,28,02,33,8.20
2015,03,28,02,34,8.20
2015,03,28,02,35,8.30
2015,03,28,02,36,8.30
2015,03,28,02,37,8.20
2015,03,28,02,38,8.20
2015,03,28,02,39,8.30
2015,03,28,02,40,8.30
2015,03,28,02,41,8.30
2015,03,28,02,42,8.30
2015,03,28,02,43,8.30
2015,03,28,02,44,8.30
2015,03,28,02,45,8.20
2015,03,28,02,46,8.20
2015,03,28,02,47,8.20
2015,03,28,02,48,8.20
2015,03,28,02,49,8.20
2015,03,28,02,50,8.20
2015,03,28,02,51,8.20
2015,03,28,02,52,8.20
2015,03,28,02,53,8.20
2015,03,28,02,54,8.20
2015,03,28,02,55,8.20
2015,03,28,02,56,8.20
2015,03,28,02,57,8.20
2015,03,28,02,58,8.20
2015,03,28,02,59,8.20
2015,03,28,03,00,8.20
2015,03,28,03,01,8.20
2015,03,28,03,02,8.20
2015,03,28,03,03,8.20
2015,03,28,03,04,8.20
2015,03,28,03,05,8.20
2015,03,28,03,06,8.20
2015,03,28,03,07,8.20
2015,03,28,03,08,8.20
2015,03,28,03,09,8.20
2015,03,28,03,10,8.20
2015,03,28,03,11,8.20
2015,03,28,03,12,8.10
2015,03,28,03,13,8.10
2015,03,28,03,14,8.10
2015,03,28,03,15,8.10
2015,03,28,03,16,8.10
2015,03,28,03,17,8.10
2015,03,28,03,18,8.10
2015,03,28,03,19,8.10
2015,03,28,03,20,8.10
2015,03,28,03,21,8.10
2015,03,28,03,22,8.10
2015,03,28,03,23,8.10
2015,03,28,03,24,8.10
2015,03,28,03,25,8.10
2015,03,28,03,26,8.10
2015,03,28,03,27,8.10
2015,03,28,03,28,8.10
2015,03,28,03,29,8.10
2015,03,28,03,30,8.10
2015,03,28,03,31,8.10
2015,03,28,03,32,8.10
2015,03,28,03,33,8.10
2015,03,28,03,34,8.00
2015,03,28,03,35,8.10
2015,03,28,03,36,8.00
2015,03,28,03,37,8.10
2015,03,28,03,38,8.10
2015,03,28,03,39,8.10
2015,03,28,03,40,8.10
2015,03,28,03,41,8.10
2015,03,28,03,42,8.10
2015,03,28,03,43,8.10
2015,03,28,03,44,8.10
2015,03,28,03,45,8.10
2015,03,28,03,46,8.10
2015,03,28,03,47,8.10
2015,03,28,03,48,8.10
2015,03,28,03,49,8.10
2015,03,28,03,50,8.10
2015,03,28,03,51,8.10
2015,03,28,03,52,8.10
2015,03,28,03,53,8.10
2015,03,28,03,54,8.10
2015,03,28,03,55,8.10
2015,03,28,03,56,8.10
2015,03,28,03,57,8.20
2015,03,28,03,58,8.20
2015,03,28,03,59,8.20
2015,03,28,04,00,8.20
2015,03,28,04,01,8.20
2015,03,28,04,02,8.20
2015,03,28,04,03,8.20
2015,03,28,05,02,7.90
2015,03,28,05,03,7.90
2015,03,28,05,04,7.90
2015,03,28,05,05,7.90
2015,03,28,05,06,7.90
2015,03,28,05,07,7.90
2015,03,28,05,08,7.90
2015,03,28,05,09,7.80
2015,03,28,05,10,7.80
2015,03,28,05,11,7.80
2015,03,28,05,12,7.80
2015,03,28,05,13,7.80
2015,03,28,05,14,7.80
2015,03,28,05,15,7.80
2015,03,28,05,16,7.80
2015,03,28,05,17,7.70
2015,03,28,05,18,7.70
2015,03,28,05,19,7.70
2015,03,28,05,20,7.70
2015,03,28,05,21,7.70
2015,03,28,05,22,7.70
2015,03,28,05,23,7.70
2015,03,28,05,24,7.70
2015,03,28,05,25,7.70
2015,03,28,05,26,7.70
2015,03,28,05,27,7.70
2015,03,28,05,28,7.70
2015,03,28,05,29,7.70
2015,03,28,05,30,7.70
2015,03,28,05,31,7.70
2015,03,28,05,32,7.70
2015,03,28,05,33,7.70
2015,03,28,05,34,7.70
2015,03,28,05,35,7.60
2015,03,28,05,36,7.60
2015,03,28,05,37,7.60
2015,03,28,05,38,7.60
2015,03,28,05,39,7.60
2015,03,28,05,40,7.60
2015,03,28,05,41,7.60
2015,03,28,05,42,7.60
2015,03,28,05,43,7.60
2015,03,28,05,44,7.60
2015,03,28,05,45,7.60
2015,03,28,05,46,7.60
2015,03,28,05,47,7.60
2015,03,28,05,48,7.60
2015,03,28,05,49,7.50
2015,03,28,05,50,7.50
2015,03,28,05,51,7.50
2015,03,28,05,52,7.50
2015,03,28,05,53,7.40
2015,03,28,05,54,7.40
2015,03,28,05,55,7.40
2015,03,28,05,56,7.40
2015,03,28,05,57,7.40
2015,03,28,05,58,7.40
2015,03,28,05,59,7.40
2015,03,28,06,00,7.40
2015,03,28,06,01,7.40
2015,03,28,06,02,7.40
2015,03,28,06,03,7.40
2015,03,28,06,04,7.50
2015,03,28,06,05,7.60
2015,03,28,06,06,7.70
2015,03,28,06,07,7.80
2015,03,28,06,08,7.80
2015,03,28,06,09,7.90
2015,03,28,06,10,7.90
2015,03,28,06,11,7.90
2015,03,28,06,12,8.00
2015,03,28,06,13,8.00
2015,03,28,06,14,8.10
2015,03,28,06,15,8.10
2015,03,28,06,16,8.10
2015,03,28,06,17,8.00
2015,03,28,06,18,8.00
2015,03,28,06,19,8.00
2015,03,28,06,20,8.00
2015,03,28,06,21,7.90
2015,03,28,06,22,8.00
2015,03,28,06,23,8.00
2015,03,28,06,24,8.00
2015,03,28,06,25,8.10
2015,03,28,06,26,8.10
2015,03,28,06,27,8.10
2015,03,28,06,28,8.00
2015,03,28,06,29,8.00
2015,03,28,06,30,8.00
2015,03,28,06,31,8.00
2015,03,28,06,32,8.00
2015,03,28,06,33,8.00
2015,03,28,06,34,8.00
2015,03,28,06,35,8.00
2015,03,28,06,36,8.00
2015,03,28,06,37,8.00
2015,03,28,06,38,8.00
2015,03,28,06,39,8.00
2015,03,28,06,40,8.00
2015,03,28,06,41,8.00
2015,03,28,06,42,7.90
2015,03,28,06,43,7.90
2015,03,28,06,44,7.90
2015,03,28,06,45,7.90
2015,03,28,06,46,7.80
2015,03,28,06,47,7.80
2015,03,28,06,48,7.80
2015,03,28,06,49,7.80
2015,03,28,06,50,7.80
2015,03,28,06,51,7.70
2015,03,28,06,52,7.70
2015,03,28,06,53,7.70
2015,03,28,06,54,7.70
2015,03,28,06,55,7.70
2015,03,28,06,56,7.70
2015,03,28,06,57,7.70
2015,03,28,06,58,7.60
2015,03,28,06,59,7.60
2015,03,28,07,00,7.50
2015,03,28,07,01,7.50
2015,03,28,07,02,7.50
2015,03,28,07,03,7.40
2015,03,28,07,04,7.40
2015,03,28,07,05,7.40
2015,03,28,07,06,7.40
2015,03,28,07,07,7.40
2015,03,28,07,08,7.30
2015,03,28,07,09,7.30
2015,03,28,07,10,7.30
2015,03,28,07,11,7.30
2015,03,28,07,12,7.30
2015,03,28,07,13,7.30
2015,03,28,07,14,7.30
2015,03,28,07,15,7.30
2015,03,28,07,16,7.30
2015,03,28,07,17,7.30
2015,03,28,07,18,7.20
2015,03,28,07,19,7.20
2015,03,28,07,20,7.20
2015,03,28,07,21,7.20
2015,03,28,07,22,7.20
2015,03,28,07,23,7.20
2015,03,28,07,24,7.20
2015,03,28,07,25,7.20
2015,03,28,07,26,7.20
2015,03,28,07,27,7.10
2015,03,28,07,28,7.10
2015,03,28,07,29,7.10
2015,03,28,07,30,7.00
2015,03,28,07,31,7.00
2015,03,28,07,32,7.00
2015,03,28,07,33,6.90
2015,03,28,07,34,6.80
2015,03,28,07,35,6.80
2015,03,28,07,36,6.70
2015,03,28,07,37,6.70
2015,03,28,07,38,6.60
2015,03,28,07,39,6.50
2015,03,28,07,40,6.50
2015,03,28,07,41,6.40
2015,03,28,07,42,6.40
2015,03,28,07,43,6.30
2015,03,28,07,44,6.30
2015,03,28,07,45,6.30
2015,03,28,07,46,6.30
2015,03,28,07,47,6.30
2015,03,28,07,48,6.30
2015,03,28,07,49,6.30
2015,03,28,07,50,6.30
2015,03,28,07,51,6.40
2015,03,28,07,52,6.40
2015,03,28,07,53,6.40
2015,03,28,07,54,6.50
2015,03,28,07,55,6.50
2015,03,28,07,56,6.60
2015,03,28,07,57,6.60
2015,03,28,07,58,6.60
2015,03,28,07,59,6.60
2015,03,28,08,00,6.60
2015,03,28,08,01,6.60
2015,03,28,08,02,6.60
2015,03,28,08,03,6.70
2015,03,28,08,04,6.70
2015,03,28,08,05,6.70
2015,03,28,08,06,6.70
2015,03,28,08,07,6.80
2015,03,28,08,08,6.80
2015,03,28,08,09,6.90
2015,03,28,08,10,6.90
2015,03,28,08,11,7.00
2015,03,28,08,12,7.10
2015,03,28,08,13,7.10
2015,03,28,08,14,7.10
2015,03,28,08,15,7.20
2015,03,28,08,16,7.30
2015,03,28,08,17,7.30
2015,03,28,08,18,7.40
2015,03,28,08,19,7.40
2015,03,28,08,20,7.50
2015,03,28,08,21,7.60
2015,03,28,08,22,7.70
2015,03,28,08,23,7.80
2015,03,28,08,24,7.90
2015,03,28,08,25,8.00
2015,03,28,08,26,8.10
2015,03,28,08,27,8.10
2015,03,28,08,28,8.10
2015,03,28,08,29,8.10
2015,03,28,08,30,8.10
2015,03,28,08,31,8.10
2015,03,28,08,32,8.10
2015,03,28,08,33,8.00
2015,03,28,08,34,8.00
2015,03,28,08,35,8.00
2015,03,28,08,36,7.90
2015,03,28,08,37,7.90
2015,03,28,08,38,7.90
2015,03,28,08,39,8.00
2015,03,28,08,40,8.00
2015,03,28,08,41,8.00
2015,03,28,08,42,8.20
2015,03,28,08,43,8.30
2015,03,28,08,44,8.50
2015,03,28,08,45,8.60
2015,03,28,08,46,8.70
2015,03,28,08,47,8.80
2015,03,28,08,48,8.80
2015,03,28,08,49,8.80
2015,03,28,08,50,8.80
2015,03,28,08,51,8.80
2015,03,28,08,52,8.80
2015,03,28,08,53,8.80
2015,03,28,08,54,8.80
2015,03,28,08,55,8.90
2015,03,28,08,56,9.00
2015,03,28,08,57,9.10
2015,03,28,08,58,9.10
2015,03,28,08,59,9.20
2015,03,28,09,00,9.20
2015,03,28,09,01,9.20
2015,03,28,09,02,9.20
2015,03,28,09,03,9.10
2015,03,28,09,04,9.10
2015,03,28,09,05,9.10
2015,03,28,09,06,9.10
2015,03,28,09,07,9.20
2015,03,28,09,08,9.20
2015,03,28,09,09,9.40
2015,03,28,09,10,9.60
2015,03,28,09,11,9.70
2015,03,28,09,12,9.70
2015,03,28,09,13,9.80
2015,03,28,09,14,9.90
2015,03,28,09,15,10.00
2015,03,28,09,16,10.10
2015,03,28,09,17,10.10
2015,03,28,09,18,10.20
2015,03,28,09,19,10.20
2015,03,28,09,20,10.20
2015,03,28,09,21,10.20
2015,03,28,09,22,10.20
2015,03,28,09,23,10.20
2015,03,28,09,24,10.20
2015,03,28,09,25,10.30
2015,03,28,09,26,10.40
2015,03,28,09,27,10.40
2015,03,28,09,28,10.50
2015,03,28,09,29,10.60
2015,03,28,09,30,10.70
2015,03,28,09,31,10.70
2015,03,28,09,32,10.80
2015,03,28,09,33,10.80
2015,03,28,09,34,10.90
2015,03,28,09,35,11.00
2015,03,28,09,36,11.00
2015,03,28,09,37,11.10
2015,03,28,09,38,11.20
2015,03,28,09,39,11.30
2015,03,28,09,40,11.30
2015,03,28,09,41,11.30
2015,03,28,09,42,11.30
2015,03,28,09,43,11.30
2015,03,28,09,44,11.40
2015,03,28,09,45,11.50
2015,03,28,09,46,11.60
2015,03,28,09,47,11.70
2015,03,28,09,48,11.70
2015,03,28,09,49,11.60
2015,03,28,09,50,11.50
2015,03,28,09,51,11.40
2015,03,28,09,52,11.30
2015,03,28,09,53,11.20
2015,03,28,09,54,11.20
2015,03,28,09,55,11.10
2015,03,28,09,56,10.90
2015,03,28,09,57,10.60
2015,03,28,09,58,10.40
2015,03,28,09,59,10.20
2015,03,28,10,00,10.10
2015,03,28,10,01,10.00
2015,03,28,10,02,9.90
2015,03,28,10,03,9.80
2015,03,28,10,04,9.80
2015,03,28,10,05,9.70
2015,03,28,10,06,9.70
2015,03,28,10,07,9.70
2015,03,28,10,08,9.60
2015,03,28,10,09,9.60
2015,03,28,10,10,9.50
2015,03,28,10,11,9.50
2015,03,28,10,12,9.50
2015,03,28,10,13,9.50
2015,03,28,10,14,9.50
2015,03,28,10,15,9.50
2015,03,28,10,16,9.40
2015,03,28,10,17,9.40
2015,03,28,10,18,9.40
2015,03,28,10,19,9.50
2015,03,28,10,20,9.40
2015,03,28,10,21,9.40
2015,03,28,10,22,9.40
2015,03,28,10,23,9.30
2015,03,28,10,24,9.40
2015,03,28,10,25,9.40
2015,03,28,10,26,9.40
2015,03,28,10,27,9.40
2015,03,28,10,28,9.40
2015,03,28,10,29,9.30
2015,03,28,10,30,9.30
2015,03,28,10,31,9.30
2015,03,28,10,32,9.30
2015,03,28,10,33,9.30
2015,03,28,10,34,9.30
2015,03,28,10,35,9.30
2015,03,28,10,36,9.30
2015,03,28,10,37,9.30
2015,03,28,10,38,9.30
2015,03,28,10,39,9.20
2015,03,28,10,40,9.20
2015,03,28,10,41,9.20
2015,03,28,10,42,9.20
2015,03,28,10,43,9.20
2015,03,28,10,44,9.20
2015,03,28,10,45,9.20
2015,03,28,10,46,9.20
2015,03,28,10,47,9.20
2015,03,28,10,48,9.10
2015,03,28,10,49,9.10
2015,03,28,10,50,9.10
2015,03,28,10,51,9.10
2015,03,28,10,52,9.10
2015,03,28,10,53,9.10
2015,03,28,10,54,9.10
2015,03,28,10,55,9.10
2015,03,28,10,56,9.10
2015,03,28,10,57,9.10
2015,03,28,10,58,9.20
2015,03,28,10,59,9.20
2015,03,28,11,00,9.20
2015,03,28,11,01,9.20
2015,03,28,11,02,9.20
2015,03,28,11,03,9.20
2015,03,28,11,04,9.20
2015,03,28,11,05,9.20
2015,03,28,11,06,9.20
2015,03,28,11,07,9.20
2015,03,28,11,08,9.20
2015,03,28,11,09,9.20
2015,03,28,11,10,9.20
2015,03,28,11,11,9.30
2015,03,28,11,12,9.30
2015,03,28,11,13,9.30
2015,03,28,11,14,9.30
2015,03,28,11,15,9.30
2015,03,28,11,16,9.30
2015,03,28,11,17,9.30
2015,03,28,11,18,9.20
2015,03,28,11,19,9.20
2015,03,28,11,20,9.20
2015,03,28,11,21,9.20
2015,03,28,11,22,9.20
2015,03,28,11,23,9.20
2015,03,28,11,24,9.20
2015,03,28,11,25,9.20
2015,03,28,11,26,9.20
2015,03,28,11,27,9.20
2015,03,28,11,28,9.10
2015,03,28,11,29,9.10
2015,03,28,11,30,9.10
2015,03,28,11,31,9.10
2015,03,28,11,32,9.10
2015,03,28,11,33,9.10
2015,03,28,11,34,9.10
2015,03,28,11,35,9.10
2015,03,28,11,36,9.20
2015,03,28,11,37,9.20
2015,03,28,11,38,9.20
2015,03,28,11,39,9.20
2015,03,28,11,40,9.20
2015,03,28,11,41,9.20
2015,03,28,11,42,9.20
2015,03,28,11,43,9.30
2015,03,28,11,44,9.30
2015,03,28,11,45,9.30
2015,03,28,11,46,9.30
2015,03,28,11,47,9.30
2015,03,28,11,48,9.30
2015,03,28,11,49,9.30
2015,03,28,11,50,9.30
2015,03,28,11,51,9.30
2015,03,28,11,52,9.30
2015,03,28,11,53,9.30
2015,03,28,11,54,9.20
2015,03,28,11,55,9.20
2015,03,28,11,56,9.20
2015,03,28,11,57,9.20
2015,03,28,11,58,9.20
2015,03,28,11,59,9.20
2015,03,28,12,00,9.20
2015,03,28,12,01,9.20
2015,03,28,12,02,9.20
2015,03,28,12,03,9.20
2015,03,28,12,04,9.20
2015,03,28,12,05,9.20
2015,03,28,12,06,9.20
2015,03,28,12,07,9.20
2015,03,28,12,08,9.20
2015,03,28,12,09,9.20
2015,03,28,12,10,9.20
2015,03,28,12,11,9.20
2015,03,28,12,12,9.20
2015,03,28,12,13,9.20
2015,03,28,12,14,9.30
2015,03,28,12,15,9.30
2015,03,28,12,16,9.30
2015,03,28,12,17,9.30
2015,03,28,12,18,9.30
2015,03,28,12,19,9.40
2015,03,28,12,20,9.40
2015,03,28,12,21,9.40
2015,03,28,12,22,9.40
2015,03,28,12,23,9.40
2015,03,28,12,24,9.40
2015,03,28,12,25,9.40
2015,03,28,12,26,9.40
2015,03,28,12,27,9.40
2015,03,28,12,28,9.40
2015,03,28,12,29,9.40
2015,03,28,12,30,9.40
2015,03,28,12,31,9.40
2015,03,28,12,32,9.40
2015,03,28,12,33,9.50
2015,03,28,12,34,9.50
2015,03,28,12,35,9.50
2015,03,28,12,36,9.50
2015,03,28,12,37,9.50
2015,03,28,12,38,9.50
2015,03,28,12,39,9.40
2015,03,28,12,40,9.40
2015,03,28,12,41,9.40
2015,03,28,12,42,9.40
2015,03,28,12,43,9.50
2015,03,28,12,44,9.50
2015,03,28,12,45,9.50
2015,03,28,12,46,9.60
2015,03,28,12,47,9.60
2015,03,28,12,48,9.60
2015,03,28,12,49,9.60
2015,03,28,12,50,9.60
2015,03,28,12,51,9.60
2015,03,28,12,52,9.60
2015,03,28,12,53,9.60
2015,03,28,12,54,9.60
2015,03,28,12,55,9.60
2015,03,28,12,56,9.60
2015,03,28,12,57,9.60
2015,03,28,12,58,9.70
2015,03,28,12,59,9.70
2015,03,28,13,00,9.70
2015,03,28,13,01,9.70
2015,03,28,13,02,9.70
2015,03,28,13,03,9.70
2015,03,28,13,04,9.70
2015,03,28,13,05,9.70
2015,03,28,13,06,9.70
2015,03,28,13,07,9.70
2015,03,28,13,08,9.80
2015,03,28,13,09,9.80
2015,03,28,13,10,9.80
2015,03,28,13,11,9.80
2015,03,28,13,12,9.90
2015,03,28,13,13,9.90
2015,03,28,13,14,9.90
2015,03,28,13,15,10.00
2015,03,28,13,16,10.00
2015,03,28,13,17,10.10
2015,03,28,13,18,10.00
2015,03,28,13,19,10.10
2015,03,28,13,20,10.10
2015,03,28,13,21,10.10
2015,03,28,13,22,10.10
2015,03,28,13,23,10.10
2015,03,28,13,24,10.10
2015,03,28,13,25,10.10
2015,03,28,13,26,10.20
2015,03,28,13,27,10.20
2015,03,28,13,28,10.30
2015,03,28,13,29,10.30
2015,03,28,13,30,10.40
2015,03,28,13,31,10.40
2015,03,28,13,32,10.30
2015,03,28,13,33,10.30
2015,03,28,13,34,10.30
2015,03,28,13,35,10.30
2015,03,28,13,36,10.20
2015,03,28,13,37,10.20
2015,03,28,13,38,10.20
2015,03,28,13,39,10.20
2015,03,28,13,40,10.20
2015,03,28,13,41,10.20
2015,03,28,13,42,10.20
2015,03,28,13,43,10.30
2015,03,28,13,44,10.30
2015,03,28,13,45,10.30
2015,03,28,13,46,10.40
2015,03,28,13,47,10.50
2015,03,28,13,48,10.50
2015,03,28,13,49,10.60
2015,03,28,13,50,10.70
2015,03,28,13,51,10.80
2015,03,28,13,52,10.80
2015,03,28,13,53,10.90
2015,03,28,13,54,10.90
2015,03,28,13,55,11.00
2015,03,28,13,56,11.00
2015,03,28,13,57,11.10
2015,03,28,13,58,11.10
2015,03,28,13,59,11.20
2015,03,28,14,00,11.20
2015,03,28,14,01,11.20
2015,03,28,14,02,11.20
2015,03,28,14,03,11.10
2015,03,28,14,04,11.10
2015,03,28,14,05,11.10
2015,03,28,14,06,11.10
2015,03,28,14,07,11.10
2015,03,28,14,08,11.00
2015,03,28,14,09,11.00
2015,03,28,14,10,10.90
2015,03,28,14,11,10.90
2015,03,28,14,12,10.90
2015,03,28,14,13,10.90
2015,03,28,14,14,10.90
2015,03,28,14,15,10.80
2015,03,28,14,16,10.80
2015,03,28,14,17,10.70
2015,03,28,14,18,10.70
2015,03,28,14,19,10.60
2015,03,28,14,20,10.60
2015,03,28,14,21,10.60
2015,03,28,14,22,10.60
2015,03,28,14,23,10.60
2015,03,28,14,24,10.60
2015,03,28,14,25,10.60
2015,03,28,14,26,10.60
2015,03,28,14,27,10.60
2015,03,28,14,28,10.60
2015,03,28,14,29,10.60
2015,03,28,14,30,10.60
2015,03,28,14,31,10.60
2015,03,28,14,32,10.70
2015,03,28,14,33,10.70
2015,03,28,14,34,10.70
2015,03,28,14,35,10.70
2015,03,28,14,36,10.70
2015,03,28,14,37,10.80
2015,03,28,14,38,10.80
2015,03,28,14,39,10.80
2015,03,28,14,40,10.80
2015,03,28,14,41,10.70
2015,03,28,14,42,10.70
2015,03,28,14,43,10.70
2015,03,28,14,44,10.60
2015,03,28,14,45,10.60
2015,03,28,14,46,10.70
2015,03,28,14,47,10.70
2015,03,28,14,48,10.60
2015,03,28,14,49,10.60
2015,03,28,14,50,10.60
2015,03,28,14,51,10.60
2015,03,28,14,52,10.50
2015,03,28,14,53,10.50
2015,03,28,14,54,10.50
2015,03,28,14,55,10.50
2015,03,28,14,56,10.50
2015,03,28,14,57,10.50
2015,03,28,14,58,10.50
2015,03,28,14,59,10.60
2015,03,28,15,00,10.70
2015,03,28,15,01,10.70
2015,03,28,15,02,10.80
2015,03,28,15,03,10.80
2015,03,28,15,04,10.70
2015,03,28,15,05,10.70
2015,03,28,15,06,10.60
2015,03,28,15,07,10.60
2015,03,28,15,08,10.60
2015,03,28,15,09,10.50
2015,03,28,15,10,10.50
2015,03,28,15,11,10.50
2015,03,28,15,12,10.50
2015,03,28,15,13,10.50
2015,03,28,15,14,10.50
2015,03,28,15,15,10.50
2015,03,28,15,16,10.50
2015,03,28,15,17,10.50
2015,03,28,15,18,10.50
2015,03,28,15,19,10.40
2015,03,28,15,20,10.40
2015,03,28,15,21,10.40
2015,03,28,15,22,10.40
2015,03,28,15,23,10.40
2015,03,28,15,24,10.30
2015,03,28,15,25,10.30
2015,03,28,15,26,10.30
2015,03,28,15,27,10.30
2015,03,28,15,28,10.30
2015,03,28,15,29,10.30
2015,03,28,15,30,10.40
2015,03,28,15,31,10.40
2015,03,28,15,32,10.50
2015,03,28,15,33,10.50
2015,03,28,15,34,10.60
2015,03,28,15,35,10.60
2015,03,28,15,36,10.50
2015,03,28,15,37,10.50
2015,03,28,15,38,10.40
2015,03,28,15,39,10.40
2015,03,28,15,40,10.40
2015,03,28,15,41,10.30
2015,03,28,15,42,10.30
2015,03,28,15,43,10.30
2015,03,28,15,44,10.30
2015,03,28,15,45,10.30
2015,03,28,15,46,10.20
2015,03,28,15,47,10.20
2015,03,28,15,48,10.20
2015,03,28,15,49,10.20
2015,03,28,15,50,10.20
2015,03,28,15,51,10.30
2015,03,28,15,52,10.30
2015,03,28,15,53,10.30
2015,03,28,15,54,10.30
2015,03,28,15,55,10.30
2015,03,28,15,56,10.30
2015,03,28,15,57,10.30
2015,03,28,15,58,10.30
2015,03,28,15,59,10.30
2015,03,28,16,00,10.30
2015,03,28,16,01,10.30
2015,03,28,16,02,10.30
2015,03,28,16,03,10.30
2015,03,28,16,04,10.40
2015,03,28,16,05,10.40
2015,03,28,16,06,10.40
2015,03,28,16,07,10.40
2015,03,28,16,08,10.40
2015,03,28,16,09,10.40
2015,03,28,16,10,10.40
2015,03,28,16,11,10.40
2015,03,28,16,12,10.30
2015,03,28,16,13,10.30
2015,03,28,16,14,10.30
2015,03,28,16,15,10.30
2015,03,28,16,16,10.30
2015,03,28,16,17,10.20
2015,03,28,16,18,10.30
2015,03,28,16,19,10.30
2015,03,28,16,20,10.30
2015,03,28,16,21,10.30
2015,03,28,16,22,10.20
2015,03,28,16,23,10.20
2015,03,28,16,24,10.20
2015,03,28,16,25,10.20
2015,03,28,16,26,10.20
2015,03,28,16,27,10.20
2015,03,28,16,28,10.20
2015,03,28,16,29,10.20
2015,03,28,16,30,10.20
2015,03,28,16,31,10.20
2015,03,28,16,32,10.20
2015,03,28,16,33,10.20
2015,03,28,16,34,10.20
2015,03,28,16,35,10.20
2015,03,28,16,36,10.20
2015,03,28,16,37,10.20
2015,03,28,16,38,10.20
2015,03,28,16,39,10.20
2015,03,28,16,40,10.20
2015,03,28,16,41,10.20
2015,03,28,16,42,10.10
2015,03,28,16,43,10.10
2015,03,28,16,44,10.10
2015,03,28,16,45,10.00
2015,03,28,16,46,10.00
2015,03,28,16,47,9.90
2015,03,28,16,48,9.90
2015,03,28,16,49,9.90
2015,03,28,16,50,9.80
2015,03,28,16,51,9.80
2015,03,28,16,52,9.80
2015,03,28,16,53,9.80
2015,03,28,16,54,9.80
2015,03,28,16,55,9.80
2015,03,28,16,56,9.80
2015,03,28,16,57,9.80
2015,03,28,16,58,9.80
2015,03,28,16,59,9.80
2015,03,28,17,00,9.80
2015,03,28,17,01,9.70
2015,03,28,17,02,9.70
2015,03,28,17,03,9.70
2015,03,28,17,04,9.70
2015,03,28,17,05,9.70
2015,03,28,17,06,9.80
2015,03,28,17,07,9.80
2015,03,28,17,08,9.90
2015,03,28,17,09,10.00
2015,03,28,17,10,10.00
2015,03,28,17,11,10.10
2015,03,28,17,12,10.10
2015,03,28,17,13,10.20
2015,03,28,17,14,10.20
2015,03,28,17,15,10.20
2015,03,28,17,16,10.20
2015,03,28,17,17,10.30
2015,03,28,17,18,10.30
2015,03,28,17,19,10.30
2015,03,28,17,20,10.30
2015,03,28,17,21,10.40
2015,03,28,17,22,10.40
2015,03,28,17,23,10.30
2015,03,28,17,24,10.30
2015,03,28,17,25,10.30
2015,03,28,17,26,10.30
2015,03,28,17,27,10.30
2015,03,28,17,28,10.30
2015,03,28,17,29,10.20
2015,03,28,17,30,10.20
2015,03,28,17,31,10.20
2015,03,28,17,32,10.20
2015,03,28,17,33,10.20
2015,03,28,17,34,10.20
2015,03,28,17,35,10.20
2015,03,28,17,36,10.20
2015,03,28,17,37,10.20
2015,03,28,17,38,10.20
2015,03,28,17,39,10.20
2015,03,28,17,40,10.20
2015,03,28,17,41,10.20
2015,03,28,17,42,10.20
2015,03,28,17,43,10.30
2015,03,28,17,44,10.30
2015,03,28,17,45,10.30
2015,03,28,17,46,10.30
2015,03,28,17,47,10.30
2015,03,28,17,48,10.30
2015,03,28,17,49,10.30
2015,03,28,17,50,10.30
2015,03,28,17,51,10.30
2015,03,28,17,52,10.30
2015,03,28,17,53,10.20
2015,03,28,17,54,10.20
2015,03,28,17,55,10.20
2015,03,28,17,56,10.20
2015,03,28,17,57,10.20
2015,03,28,17,58,10.20
2015,03,28,17,59,10.20
2015,03,28,18,00,10.20
2015,03,28,18,01,10.10
2015,03,28,18,02,10.10
2015,03,28,18,03,10.10
2015,03,28,18,04,10.10
2015,03,28,18,05,10.10
2015,03,28,18,06,10.10
2015,03,28,18,07,10.10
2015,03,28,18,08,10.10
2015,03,28,18,09,10.10
2015,03,28,18,10,10.10
2015,03,28,18,11,10.10
2015,03,28,18,12,10.10
2015,03,28,18,13,10.00
2015,03,28,18,14,10.00
2015,03,28,18,15,10.00
2015,03,28,18,16,10.00
2015,03,28,18,17,9.90
2015,03,28,18,18,9.90
2015,03,28,18,19,9.90
2015,03,28,18,20,9.90
2015,03,28,18,21,9.90
2015,03,28,18,22,9.90
2015,03,28,18,23,9.80
2015,03,28,18,24,9.80
2015,03,28,18,25,9.80
2015,03,28,18,26,9.80
2015,03,28,18,27,9.80
2015,03,28,18,28,9.80
2015,03,28,18,29,9.80
2015,03,28,18,30,9.70
2015,03,28,18,31,9.70
2015,03,28,18,32,9.70
2015,03,28,18,33,9.70
2015,03,28,18,34,9.70
2015,03,28,18,35,9.70
2015,03,28,18,36,9.70
2015,03,28,18,37,9.70
2015,03,28,18,38,9.70
2015,03,28,18,39,9.70
2015,03,28,18,40,9.70
2015,03,28,18,41,9.70
2015,03,28,18,42,9.70
2015,03,28,18,43,9.70
2015,03,28,18,44,9.60
2015,03,28,18,45,9.60
2015,03,28,18,46,9.60
2015,03,28,18,47,9.60
2015,03,28,18,48,9.60
2015,03,28,18,49,9.60